Regional Weather Roundup
Issued by NWS Upton, NY

Current Version | Previous Version | Graphics & Text | Print | Product List | Glossary Off
Versions: 1 2 3 4 5 6 7 8 9 10 11 12 13 14 15 16 17 18 19 20 21 22 23 24 25 26 27 28 29 30 31 32 33 34 35 36 37 38 39 40 41 42 43 44 45 46 47 48 49 50

000
ASUS41 KOKX 281508
RWROKX

REGIONAL WEATHER ROUNDUP
NATIONAL WEATHER SERVICE NEW YORK NY
1100 AM EDT TUE JUL 28 2015

NOTE: "FAIR" INDICATES FEW OR NO CLOUDS BELOW 12,000 FEET WITH NO
SIGNIFICANT WEATHER AND/OR OBSTRUCTIONS TO VISIBILITY.

NYZ071-072-176-178-NJZ106-104-281600-
NEW YORK CITY METRO AREA


CITY           SKY/WX    TMP DP  RH WIND       PRES   REMARKS
CENTRAL PARK   SUNNY     86  63  45 CALM      30.02S
LAGUARDIA APRT PTSUNNY   87  64  46 N3        29.98F
KENNEDY INTL   PTSUNNY   82  70  66 S9        30.00S
NEWARK/LIBERTY MOSUNNY   87  68  52 VRB5      29.98F HX  90
BRNX BOT. GARD   N/A     86  66  51 NW7       30.00S
TETERBORO      SUNNY     86  64  47 NW5       29.98S
$$

NYZ177-179-078>081-281600-
LONG ISLAND NEW YORK

CITY           SKY/WX    TMP DP  RH WIND       PRES   REMARKS
FARMINGDALE    PTSUNNY   84  71  65 S9        29.99S
ISLIP          PTSUNNY   83  72  69 S7        29.97S
SHIRLEY        MOSUNNY   85  73  67 S10       29.99F HX  91
WESTHAMPTON    MOSUNNY   85  73  67 S9        30.00S HX  91
MONTAUK POINT    N/A     81  72  74 NW7       30.00S
$$

NYZ052-065-067-281600-
HUDSON VALLEY

CITY           SKY/WX    TMP DP  RH WIND       PRES   REMARKS
WHITE PLAINS   MOSUNNY   83  71  67 W5        30.00S
NEWBURGH       SUNNY     82  72  69 VRB5      30.02F
MONTGOMERY     SUNNY     84  71  65 VRB5      30.00F
POUGHKEEPSIE   SUNNY     82  68  62 CALM      29.99F
ALBANY         MOSUNNY   83  64  52 SW6       29.99F
$$

NJZ001-105-106-008-010-013-015-019>022-104-281600-
NEW JERSEY

CITY           SKY/WX    TMP DP  RH WIND       PRES   REMARKS
NEWARK/LIBERTY MOSUNNY   87  68  52 VRB5      29.98F HX  90
TETERBORO      SUNNY     86  64  47 NW5       29.98S
CALDWELL       SUNNY     87  67  51 VRB5      30.00S HX  90
MORRISTOWN     MOSUNNY   88  68  51 E5        30.00F HX  91
SOMERVILLE     SUNNY     86  68  54 VRB3      29.98F
SUSSEX         SUNNY     85  66  53 N7        30.01F
ANDOVER          N/A     83  67  58 NE3       30.03S
TRENTON        SUNNY     85  69  58 CALM      30.00S
MILLVILLE      PTSUNNY   85  72  65 VRB3      30.01S HX  91
ATLANTIC CITY  MOSUNNY   84  73  69 SW5       30.01F HX  90
WRIGHTSTOWN    SUNNY     85  72  65 VRB1      29.98S HX  91
TOMS RIVER     PTSUNNY   84  70  61 CALM      30.00S
BELMAR         PTSUNNY   84  70  61 S3        30.00S
$$

PAZ047>061-062-071-281600-
EASTERN PENNSYLVANIA

CITY           SKY/WX    TMP DP  RH WIND       PRES   REMARKS
PHILADELPHIA   MOSUNNY   86  70  58 VRB3      30.01F HX  90
ALLENTOWN      SUNNY     86  68  54 CALM      30.02F
SCRANTON       SUNNY     73  67  81 VRB3      30.05F
$$

CTZ002-004>006-009-010-012-RIZ004-006-007-MAZ004-011-015-281600-
SOUTHERN NEW ENGLAND
 IN CT

CITY           SKY/WX    TMP DP  RH WIND       PRES   REMARKS
BRADLEY INTL   MOSUNNY   83  67  58 VRB3      29.97F
HARTFORD       SUNNY     84  68  58 SW3       29.97F
DANBURY        SUNNY     85  66  53 VRB5      30.01F
WTRBRY/OXFORD  MOSUNNY   81  66  61 N5        30.04S
BRIDGEPORT     SUNNY     80  71  74 SW9       29.99S
MERIDEN        SUNNY     85  67  54 CALM      29.98F
NEW HAVEN      MOSUNNY   80  72  76 S8        29.99S
CHESTER        FAIR      81  72  74 CALM      30.00F
GROTON         MOSUNNY   78  71  79 SW9       29.97F
WILLIMANTIC    SUNNY     82  68  62 CALM      29.98F

 IN RI

CITY           SKY/WX    TMP DP  RH WIND       PRES   REMARKS
PROVIDENCE     MOSUNNY   80  70  71 CALM      29.97F
BLOCK ISLAND   CLOUDY    79  73  83 W12       30.00S
WESTERLY       MOSUNNY   80  71  74 S8        29.98F

 IN MA

CITY           SKY/WX    TMP DP  RH WIND       PRES   REMARKS
BOSTON         MOSUNNY   81  69  67 SW6       29.96F
WORCESTER      SUNNY     78  65  63 W6        30.01S
WESTFIELD      SUNNY     81  69  67 CALM      29.97F
PROVINCETOWN   MOSUNNY   79  66  65 SW9       29.97S
NANTUCKET      MOSUNNY   77  71  82 SW13      29.99S
$$

ANZ330-335-338-340-345-350-353-355-281600-
COASTAL MARINE OBSERVATIONS


STATION/POSITION TIME  SKY/WX   TEMP    WIND        PRES    VSBY  WAVE
                                AIR SEA DIR/SP/G                  HT/PER
                 (UTC)          (F)     (DEG/KT/KT) (MB)    (MI)  (FT/S)
NY HARB ENTRANCE 1450            75 76  230/  8/  8 1015.6          2/10
4S FIRE IS       NOT AVBL
20S FIRE ISLAND  1450            74 72  230/  8/ 10 1015.6          2/ 9
GREAT SOUTH BAY  1400            76 80  270/  6/  8   N/A
23SW MTP         1450            74 74  230/  8/ 10 1015.3          2/ 9
HUDSON CANYON    NOT AVBL
KINGS POINT      1400            81 69     CALM     1014.9
CENTRAL LI SOUND NOT AVBL
EASTERN LI SOUND 1400            72 69  260/  4/  4   N/A
ROBBINS REEF     1400            77     160/  5/  6 1014.6
$$


>>>>>>>>>>>>>>>>>>>>>>>>>>>> KEY <<<<<<<<<<<<<<<<<<<<<<<<<<<
>                                                          <
>     SKY/WX - SKY CONDITION/PRESENT WEATHER               <
>     TMP    - TEMPERATURE IN FAHRENHEIT                   <
>     DP     - DEWPOINT IN FAHRENHEIT                      <
>     RH     - RELATIVE HUMIDITY IN PERCENT                <
>     WIND   - DIRECTION AND SPEED IN MPH                  <
>     PRES   - MEAN SEA LEVEL PRESSURE IN INCHES OF HG     <
>     WCI    - WIND CHILL INDEX                            <
>     VSB    - VISIBILITY IN MILES                         <
>     HX     - HEAT INDEX                                  <
>     TC     - TEMPERATURE IN CELSIUS                      <
>     VRB    - VARIABLE WIND DIRECTION                     <
>                                                          <
>>>>>>>>>>>>>>>>>>>>>>>>>>>> KEY <<<<<<<<<<<<<<<<<<<<<<<<<<<




USA.gov is the U.S. government's official web portal to all federal, state and local government web resources and services.